Szeged, Hungary

11:42 PM CEST on May 22, 2017 (GMT +0200)
Szeged

Weather History for LHUD - October, 2012

Change the Weather History Date:

Tuesday, October 30, 2012

  Actual Average (LRAR) Record (LRAR)
Temperature  
Mean Temperature 38 °F -  
Max Temperature 44 °F 49 °F 74 °F (2013)
Min Temperature 31 °F 35 °F 17 °F (1997)
Degree Days  
Heating Degree Days 28    
Moisture  
Dew Point 32 °F    
Average Humidity 81    
Maximum Humidity 93    
Minimum Humidity 60    
Precipitation  
Precipitation 0.00 in 0.05 in - ()
Sea Level Pressure  
Sea Level Pressure 29.90 in    
Wind  
Wind Speed 8 mph ()    
Max Wind Speed 16 mph    
Max Gust Speed -    
Visibility 6.2 miles    
Events      
Averages and records for this station are not official NWS values.
T = Trace of Precipitation, MM = Missing Value Source: Averaged Metar Reports

Daily Weather History Graph

Daily Weather History Graph

Search for Another Location

Airport or City:

Trip Planner

Search our weather history database for the weather conditions in past years. The results will help you decide how hot, cold, wet, or windy it might be!

Date:

Astronomy

Oct. 30, 2012 Rise Set
Actual Time 6:18 AM CET 4:27 PM CET
Civil Twilight 5:46 AM CET 4:58 PM CET
Nautical Twilight 5:11 AM CET 5:34 PM CET
Astronomical Twilight 4:36 AM CET 6:09 PM CET
Moon 4:41 PM CET (10/30) 6:51 AM CET (10/30)
Length of Visible Light 11h 12m
Length of Day
10h 09m
Full, 100% of the Moon is Illuminated
Oct 30
Full
Nov 7
Last Quarter
Nov 13
New
Nov 20
First Quarter
Nov 28
Full

Hourly Weather History & Observations

Time (CET) Temp. Windchill Dew Point Humidity Pressure Visibility Wind Dir Wind Speed Gust Speed Precip Events Conditions
12:45 AM 37.4 °F 32.1 °F 35.6 °F 93% 29.86 in 5.6 mi West 6.9 mph - N/A   Overcast
1:00 AM 37 °F - 35 °F 89% 29.87 in 6 mi West 6.7 mph - -   Partly Cloudy
1:45 AM 37.4 °F 32.1 °F 33.8 °F 87% 29.86 in 6.2 mi WSW 6.9 mph - N/A   Mostly Cloudy
2:45 AM 35.6 °F 28.6 °F 33.8 °F 93% 29.86 in 6.2 mi West 9.2 mph - N/A   Mostly Cloudy
3:45 AM 35.6 °F 28.0 °F 32.0 °F 87% 29.86 in - West 10.4 mph - N/A   Clear
4:45 AM 33.8 °F 26.4 °F 30.2 °F 87% 29.86 in 5.0 mi West 9.2 mph - N/A   Scattered Clouds
5:15 AM 32.0 °F 24.8 °F 30.2 °F 93% 29.86 in 5.0 mi West 8.1 mph - N/A   Partly Cloudy
5:45 AM 32.0 °F 24.8 °F 30.2 °F 93% 29.86 in - West 8.1 mph - N/A   Clear
6:15 AM 32.0 °F 26.4 °F 30.2 °F 93% 29.86 in - West 5.8 mph - N/A   Clear
6:45 AM 32.0 °F 26.4 °F 30.2 °F 93% 29.86 in - West 5.8 mph - N/A   Clear
7:00 AM 32 °F - 29 °F 86% 29.88 in 10 mi West 6.7 mph - -   Partly Cloudy
7:15 AM 32.0 °F 24.8 °F 30.2 °F 93% 29.89 in - West 8.1 mph - N/A   Clear
7:45 AM 33.8 °F 27.7 °F 30.2 °F 87% 29.89 in - West 6.9 mph - N/A   Clear
8:15 AM 33.8 °F 26.4 °F 30.2 °F 87% 29.89 in - West 9.2 mph - N/A   Clear
8:45 AM 35.6 °F 28.0 °F 32.0 °F 87% 29.92 in 6.2 mi West 10.4 mph - N/A   Partly Cloudy
9:15 AM 37.4 °F 28.9 °F 32.0 °F 81% 29.89 in 6.2 mi West 13.8 mph - N/A   Partly Cloudy
9:45 AM 39.2 °F 31.2 °F 32.0 °F 75% 29.89 in 6.2 mi West 13.8 mph - N/A   Scattered Clouds
10:15 AM 39.2 °F 31.2 °F 32.0 °F 75% 29.89 in 6.2 mi West 13.8 mph - N/A   Partly Cloudy
10:45 AM 41.0 °F 33.1 °F 32.0 °F 70% 29.89 in 6.2 mi WNW 15.0 mph - N/A   Scattered Clouds
11:15 AM 41.0 °F 33.5 °F 30.2 °F 65% 29.89 in 6.2 mi West 13.8 mph - N/A   Scattered Clouds
11:45 AM 41.0 °F 33.5 °F 32.0 °F 70% 29.89 in 6.2 mi West 13.8 mph - N/A   Mostly Cloudy
12:15 PM 42.8 °F 35.1 °F 33.8 °F 70% 29.89 in 6.2 mi WSW 16.1 mph - N/A   Scattered Clouds
12:45 PM 42.8 °F 35.8 °F 33.8 °F 70% 29.89 in 6.2 mi WSW 13.8 mph - N/A   Mostly Cloudy
1:00 PM 43 °F - 34 °F 60% 29.91 in 28 mi WSW 13.4 mph - -   Partly Cloudy
1:15 PM 44.6 °F 38.1 °F 33.8 °F 66% 29.89 in 6.2 mi West 13.8 mph - N/A   Scattered Clouds
1:45 PM 44.6 °F 38.4 °F 32.0 °F 61% 29.89 in 6.2 mi SW 12.7 mph - N/A   Scattered Clouds
2:15 PM 42.8 °F 37.0 °F 32.0 °F 66% 29.89 in 6.2 mi WSW 10.4 mph - N/A   Scattered Clouds
2:45 PM 44.6 °F 40.2 °F 32.0 °F 61% 29.89 in 6.2 mi West 8.1 mph - N/A   Scattered Clouds
3:15 PM 42.8 °F 37.5 °F 32.0 °F 66% 29.89 in 6.2 mi SW 9.2 mph - N/A   Partly Cloudy
3:45 PM 42.8 °F 37.0 °F 32.0 °F 66% 29.92 in 6.2 mi SW 10.4 mph - N/A   Partly Cloudy
4:15 PM 41.0 °F 35.2 °F 32.0 °F 70% 29.92 in 6.2 mi SW 9.2 mph - N/A   Partly Cloudy
4:45 PM 41.0 °F 36.4 °F 32.0 °F 70% 29.92 in - SW 6.9 mph - N/A   Clear
5:15 PM 37.4 °F 32.8 °F 32.0 °F 81% 29.92 in - South 5.8 mph - N/A   Clear
5:45 PM 37.4 °F 32.1 °F 32.0 °F 81% 29.92 in - SSE 6.9 mph - N/A   Clear
6:15 PM 35.6 °F 30.7 °F 32.0 °F 87% 29.95 in - South 5.8 mph - N/A   Clear
6:45 PM 35.6 °F 29.9 °F 32.0 °F 87% 29.95 in - SSE 6.9 mph - N/A   Clear
7:15 PM 35.6 °F 29.9 °F 32.0 °F 87% 29.95 in - South 6.9 mph - N/A   Clear
7:45 PM 33.8 °F 27.0 °F 30.2 °F 87% 29.95 in - South 8.1 mph - N/A   Clear
8:15 PM 33.8 °F 27.0 °F 30.2 °F 87% 29.95 in - South 8.1 mph - N/A   Clear
8:45 PM 32.0 °F 25.6 °F 30.2 °F 93% 29.95 in - SSE 6.9 mph - N/A   Clear
9:45 PM 33.8 °F 27.0 °F 30.2 °F 87% 29.95 in - SSE 8.1 mph - N/A   Clear
10:45 PM 33.8 °F 27.0 °F 30.2 °F 87% 29.95 in - SSE 8.1 mph - N/A   Clear
11:45 PM 32.0 °F 25.6 °F 30.2 °F 93% 29.98 in - SSE 6.9 mph - N/A   Clear